一网星座-0311星 (ONEWEB-0311 )

导读

ONEWEB-0311是英国OneWeb公司的低轨互联网通信卫星,于2021年8月21日由俄罗斯“联盟-2.1b”运载火箭发射,属于OneWeb卫星星座组网任务中的一颗。该卫星单颗质量147千克,配备Ku波段天线,最终运行在约1200公里高度的近地轨道。它服务于OneWeb的全球宽带网络,目标是为全球无地面网络覆盖区域提供高速低延迟互联网接入,助力全球互联覆盖。

基本信息
目录编号:
49097
目录名称:
ONEWEB-0311
国际标识:
2021-075Y
轨道中心:
EARTH
卫星名称:
一网星座-0311星
卫星全名:
一网星座-0311星 (ONEWEB-0311 )
卫星状态:
在轨 (已飞行1801 天)
发射日期:
2021-08-21 UTC
国别 :
英国 (GB)
星等 :
--
轨道信息
数据来源 国际轨道数据 AOE轨道数据
星历时间 2026-07-27T16:12:25+0800
15小时前
查看轨道信息
2026-07-23T08:00:00+0800
4天前
查看轨道信息
半长轴 7571.85km 7571.843km
偏心率 0.0001456 0.0000709
轨道倾角 87.916° 87.916°
近地点辐角 84.740° 44.475°
升交点赤经 357.876° 358.737°
平近点角 275.390° 251.231°
近地点 1192.61km 1193.169km
远地点 1194.816km 1194.243km
周期 109.286分钟 109.285分钟
每日圈数 13.176493 13.176511
详细信息
平衡模式:
三轴稳定
覆盖范围:
全球
运营商:
一网卫星公司
运营商所在国:
英国
制造商(研发单位):
一网卫星公司
制造商所在国:
英国
使用方式:
暂无
卫星简介
OneWeb卫星网络由648颗重约125公斤的微型卫星组成,运行在1200公里的轨道上。 每颗卫星都能够提供至少每秒8千兆位的吞吐量,以使用其高吞吐量的Ku频段有效载荷为家庭和移动平台提供互联网接入。该卫星仍在工作。
2D轨道图
3D轨道图
轨道高度分析图
轨道倾角分析图
轨道综合分析图
查看轨道综合分析图